Location: Burbank
(38.7788°N, 114.0429°W)
Time: 20:48:19
(UTC+00:00)

Vanguard 2 - Pass Details

Date: 12 May 2026
Orbit: 553 x 2894 km, 32.9° (Epoch: 6 June)

Event Time Altitude Azimuth Distance (km) Brightness Sun altitude
Rises 07:30:49 0° 200° (SSW) 6,232 - -33.1°
Reaches altitude 10° 07:35:51 10° 188° (S) 5,459 - -33.0°
Maximum altitude 07:48:26 26° 140° (SE) 4,487 - -32.9°
Exits shadow 07:49:39 26° 135° (SE) 4,496 11.0 -32.9°
Drops below altitude 10° 08:00:51 10° 93° (E) 5,443 11.9 -32.7°
Sets 08:05:45 0° 82° (E) 6,218 12.4 -32.5°
